This is the latest recevied weather packets stored in our database for station/object N5ATR. If no packets are shown the sender has not sent any weather packets the latest 10 day(s).
| Time | Temp. | Humidity | Pressure | Rain* | Wind** | Luminosity | Snow |
|---|---|---|---|---|---|---|---|
| 1788424928 | 15.56° C | 47% | 1021.2 hPa | 0 mm | - | 0 W/m² | - |
| 1788424624 | 15.56° C | 47% | 1021.2 hPa | 0 mm | - | 0 W/m² | - |
| 1788424323 | 16.11° C | 48% | 1021.7 hPa | 0 mm | - | 0 W/m² | - |
| 1788424017 | 16.11° C | 47% | 1021.4 hPa | 0 mm | - | 0 W/m² | - |
| 1788423713 | 16.11° C | 48% | 1021.7 hPa | 0 mm | - | 0 W/m² | - |
| 1788423408 | 16.11° C | 49% | 1021.4 hPa | 0 mm | - | 0 W/m² | - |
| 1788423103 | 15.56° C | 49% | 1021.5 hPa | 0 mm | - | 0 W/m² | - |
| 1788422800 | 15° C | 52% | 1021.5 hPa | 0 mm | - | 0 W/m² | - |
| 1788422497 | 15.56° C | 51% | 1021.8 hPa | 0 mm | - | 0 W/m² | - |
| 1788422196 | 16.11° C | 50% | 1021.8 hPa | 0 mm | - | 0 W/m² | - |
| 1788421891 | 16.11° C | 50% | 1021.9 hPa | 0 mm | - | 0 W/m² | - |
| 1788421591 | 15.56° C | 51% | 1021.9 hPa | 0 mm | - | 0 W/m² | - |
| 1788421286 | 15.56° C | 50% | 1022 hPa | 0 mm | - | 0 W/m² | - |
| 1788420981 | 16.11° C | 49% | 1021.8 hPa | 0 mm | - | 0 W/m² | - |
| 1788420677 | 16.67° C | 48% | 1022.2 hPa | 0 mm | - | 0 W/m² | - |
| 1788420372 | 16.11° C | 49% | 1022 hPa | 0 mm | - | 0 W/m² | - |
| 1788420068 | 15.56° C | 52% | 1021.9 hPa | 0 mm | - | 0 W/m² | - |
| 1788419765 | 15.56° C | 51% | 1021.9 hPa | 0 mm | - | 0 W/m² | - |
| 1788419465 | 16.11° C | 48% | 1022 hPa | 0 mm | - | 0 W/m² | - |
| 1788419165 | 16.67° C | 48% | 1022.2 hPa | 0 mm | - | 0 W/m² | - |
| 1788418861 | 16.67° C | 48% | 1021.8 hPa | 0 mm | - | 0 W/m² | - |
| 1788418559 | 16.67° C | 49% | 1022 hPa | 0 mm | - | 0 W/m² | - |
| 1788418255 | 17.22° C | 48% | 1021.8 hPa | 0 mm | - | 0 W/m² | - |
| 1788417954 | 17.22° C | 47% | 1022.2 hPa | 0 mm | - | 0 W/m² | - |
| 1788417650 | 17.78° C | 46% | 1022 hPa | 0 mm | - | 0 W/m² | - |
* Rain latest hour (hover to see other rain measurements)
** Current wind speed in m/s (hover to see current wind gust speed)